Lewiston, ID

7:37 PM PST on January 18, 2017 (GMT -0800)
Lewiston-Nez Perce County

Weather History for KLWS - September, 2013

Change the Weather History Date:

Sunday, September 1, 2013

  Actual Average Record
Temperature  
Mean Temperature 78 °F 70 °F  
Max Temperature 94 °F 84 °F 102 °F (1938)
Min Temperature 62 °F 56 °F 44 °F (1999)
Degree Days  
Heating Degree Days 0 1  
Month to date heating degree days 0 1  
Since 1 July heating degree days 0 16  
Cooling Degree Days 13 6  
Month to date cooling degree days 13 6  
Year to date cooling degree days 1007 723  
Growing Degree Days 28 (Base 50)    
Moisture  
Dew Point 45 °F    
Average Humidity 35    
Maximum Humidity 52    
Minimum Humidity 17    
Precipitation  
Precipitation T in 0.02 in 0.69 in (1971)
Month to date precipitation T 0.02  
Year to date precipitation 6.39 8.55  
Snow  
Snow 0.00 in 0.00 in 0.00 in (1998)
Month to date snowfall 0.0 0.0  
Since 1 July snowfall 0.0 0.0  
Since 1 September snowfall 0.0 0.0  
Snow Depth 0.00 in    
Sea Level Pressure  
Sea Level Pressure 29.78 in    
Wind  
Wind Speed 4 mph (ENE)    
Max Wind Speed 13 mph    
Max Gust Speed 16 mph    
Visibility 10 miles    
Events      
T = Trace of Precipitation, MM = Missing Value Source: NWS Daily Summary

Daily Weather History Graph

Daily Weather History Graph

Search for Another Location

Airport or City:

Trip Planner

Search our weather history database for the weather conditions in past years. The results will help you decide how hot, cold, wet, or windy it might be!

Date:

Astronomy

Sep. 01, 2013 Rise Set
Actual Time 6:08 AM PDT 7:26 PM PDT
Civil Twilight 5:37 AM PDT 7:57 PM PDT
Nautical Twilight 5:00 AM PDT 8:34 PM PDT
Astronomical Twilight 4:19 AM PDT 9:14 PM PDT
Moon 2:26 AM PDT (9/1) 5:13 PM PDT (9/1)
Length of Visible Light 14h 19m
Length of Day
13h 17m
Waning Crescent, 13% of the Moon is Illuminated
Sep 1
Waning Crescent
Sep 5
New
Sep 12
First Quarter
Sep 19
Full
Sep 26
Last Quarter

Hourly Weather History & Observations

Time (PDT) Temp. Dew Point Humidity Pressure Visibility Wind Dir Wind Speed Gust Speed Precip Events Conditions
12:56 AM 71.1 °F 43.0 °F 36% 29.82 in 10.0 mi SE 3.5 mph - N/A   Clear
1:56 AM 70.0 °F 43.0 °F 38% 29.82 in 10.0 mi SSE 3.5 mph - N/A   Clear
2:56 AM 68.0 °F 43.0 °F 40% 29.82 in 10.0 mi Calm Calm - N/A   Clear
3:56 AM 66.0 °F 42.1 °F 42% 29.82 in 10.0 mi SSE 3.5 mph - N/A   Clear
4:56 AM 64.9 °F 43.0 °F 45% 29.82 in 10.0 mi Calm Calm - N/A   Clear
5:56 AM 64.0 °F 45.0 °F 50% 29.83 in 10.0 mi Calm Calm - N/A   Clear
6:56 AM 64.0 °F 46.0 °F 52% 29.83 in 10.0 mi East 6.9 mph - N/A   Clear
7:56 AM 68.0 °F 46.9 °F 47% 29.83 in 10.0 mi East 6.9 mph - N/A   Clear
8:56 AM 73.0 °F 48.0 °F 41% 29.82 in 10.0 mi ENE 8.1 mph - N/A   Clear
9:56 AM 78.1 °F 46.0 °F 32% 29.81 in 10.0 mi ENE 5.8 mph - N/A   Clear
10:56 AM 82.9 °F 46.0 °F 27% 29.79 in 10.0 mi ENE 4.6 mph - N/A   Clear
11:56 AM 82.0 °F 46.0 °F 28% 29.80 in 10.0 mi WNW 11.5 mph - 0.00 in   Clear
12:56 PM 86.0 °F 44.1 °F 23% 29.78 in 10.0 mi WSW 3.5 mph - N/A   Clear
1:56 PM 88.0 °F 44.1 °F 22% 29.77 in 10.0 mi Calm Calm - N/A   Clear
2:56 PM 89.1 °F 45.0 °F 22% 29.75 in 10.0 mi NW 6.9 mph - N/A   Clear
3:56 PM 91.9 °F 44.1 °F 19% 29.75 in 10.0 mi WNW 5.8 mph - N/A   Clear
4:56 PM 93.0 °F 43.0 °F 18% 29.73 in 10.0 mi WNW 3.5 mph - N/A   Clear
5:56 PM 91.9 °F 42.1 °F 18% 29.72 in 10.0 mi WNW 3.5 mph - N/A   Clear
6:56 PM 89.1 °F 43.0 °F 20% 29.72 in 10.0 mi NW 3.5 mph - N/A   Clear
7:56 PM 86.0 °F 45.0 °F 24% 29.74 in 10.0 mi Calm Calm - N/A   Clear
8:56 PM 80.1 °F 44.1 °F 28% 29.75 in 10.0 mi SE 3.5 mph - N/A   Clear
9:56 PM 80.1 °F 44.1 °F 28% 29.73 in 10.0 mi Calm Calm - N/A   Clear
10:56 PM 80.1 °F 46.9 °F 31% 29.75 in 10.0 mi NE 3.5 mph - 0.00 in   Clear
11:56 PM 78.1 °F 44.1 °F 30% 29.75 in 10.0 mi ESE 4.6 mph - N/A   Clear